Volver al catálogo

STARLINK-31266

ActivoComunicacionesVLEO
NORAD 59087·PAYLOAD·🇺🇸 United States

Lanzado Feb 29, 2024 desde Cape Canaveral Space Force Station

Loading…

Próximos Pases (próximas 24 horas)

TLE

ActualizadoSource: CelesTrak SupGP

Época: Sep 15, 2026, 02:35 UTC

1 59087C 24041P   26258.10812500  .00046859  00000+0  16971-2 0  2585
2 59087  43.0014 320.8124 0001579 262.9625  54.4902 15.27557881    11

Sigue STARLINK-31266 en tiempo real con AllMySat

Download on the App Store